FW2422 Weather Reports


time (UTC)temp
C
wind
direction
speed
KPH
gust
KPH
rain 1hr
cm
rain 24hr
cm
rain mn
cm
humidity
%
barometer
mb
20260505214544 32 89 0.0 11.3 0.00 0.00 0.00 58 1003.3
20260505213042 32 163 0.0 16.1 0.00 0.00 0.00 58 1003.4
20260505211541 32 165 4.8 17.7 0.00 0.00 0.00 57 1003.6
20260505210044 32 120 3.2 14.5 0.00 0.00 0.00 56 1003.6
20260505204536 32 99 3.2 12.9 0.00 0.00 0.00 56 1004.0
20260505203037 32 219 0.0 17.7 0.00 0.00 0.00 56 1004.0
20260505201547 31 134 4.8 11.3 0.00 0.00 0.00 57 1004.1
20260505200033 31 98 1.6 12.9 0.00 0.00 0.00 58 1004.2
20260505194527 31 229 0.0 12.9 0.00 0.00 0.00 60 1004.3
20260505183114 29 131 1.6 11.3 0.00 0.00 0.00 62 1004.8
20260505181553 29 175 1.6 14.5 0.00 0.00 0.00 63 1004.8
20260505180050 28 127 0.0 12.9 0.00 0.00 0.00 65 1004.9
20260505174549 28 113 3.2 11.3 0.00 0.00 0.00 63 1005.0
20260505173052 28 182 1.6 12.9 0.00 0.00 0.00 65 1004.8
20260505171555 28 236 3.2 17.7 0.00 0.00 0.00 64 1004.9
20260505170044 28 97 0.0 12.9 0.00 0.00 0.00 67 1005.1
20260505164539 27 58 0.0 17.7 0.00 0.00 0.00 68 1005.1
20260505163037 27 41 0.0 16.1 0.00 0.00 0.00 67 1004.8
20260505161536 27 205 0.0 20.9 0.00 0.00 0.00 70 1004.7
20260505153028 26 100 1.6 14.5 0.00 0.00 0.00 74 1004.7
20260505151532 25 232 4.8 17.7 0.00 0.00 0.00 76 1004.8
20260505123007 -17 0.0 0.0 0.00 0.00 0.00 1004.2
20260505121503 -17 0.0 0.0 0.00 0.00 0.00 1004.2
20260505120117 -17 0.0 0.0 0.00 0.00 0.00 1004.1
20260505114554 -17 0.0 0.0 0.00 0.00 0.00 1004.1
20260505113050 -17 0.0 0.0 0.00 0.00 0.00 1003.9
20260505111545 -17 0.0 0.0 0.00 0.00 0.00 1004.0
20260505083026 21 207 6.4 20.9 0.00 0.00 0.00 84 1004.5
20260505081522 21 127 3.2 19.3 0.00 0.00 0.00 84 1004.6
20260505080024 21 194 3.2 19.3 0.00 0.00 0.00 83 1004.7
20260505074518 21 123 4.8 17.7 0.00 0.00 0.00 83 1005.0
20260505064559 22 189 1.6 20.9 0.00 0.00 0.00 80 1005.7
20260505054556 22 95 3.2 17.7 0.00 0.00 0.00 78 1005.9
20260505053034 22 205 6.4 17.7 0.00 0.00 0.00 77 1006.0
20260505051528 22 143 3.2 16.1 0.00 0.00 0.00 77 1006.2
20260505034512 23 137 3.2 14.5 0.00 0.00 0.00 72 1006.3
20260505033012 23 160 3.2 14.5 0.00 0.00 0.00 71 1006.3
20260505031529 23 101 1.6 11.3 0.00 0.00 0.00 71 1006.6
20260505030012 23 113 4.8 17.7 0.00 0.00 0.00 70 1006.5
20260505024541 23 66 1.6 14.5 0.00 0.00 0.00 70 1006.4